UmKA 1 (RS40S)
1 57172U 23091G   26156.71069500  .00007719  00000-0  35360-3 0  9999
2 57172  97.5051 215.4529 0013615 153.9596 206.2326 15.20682241162262
CubeBel-2 (EU11S)
1 57175U 23091K   26156.79664514  .00016303  00000-0  58226-3 0  9991
2 57175  97.5051 219.9140 0010855 149.6939 210.4930 15.28872331162569
RS-38S
1 57189U 23091Z   26156.81103561  .00022128  00000-0  63883-3 0  9996
2 57189  97.5090 226.0713 0008746 111.2948 248.9230 15.35653924162947
SONATE-2
1 59112U 24043Q   26156.38685947  .00037545  00000-0  50424-3 0  9993
2 59112  97.5534 306.0669 0006708 233.9854 126.0780 15.57809925126057
GRBBeta
1 60237U 24128C   26156.80442397  .00004786  00000-0  32990-3 0  9993
2 60237  61.9902 256.2010 0042146 132.3196 228.1481 15.06556764104551
Curium One
1 60242U 24128H   26156.79855954  .00009236  00000-0  53116-3 0  9992
2 60242  61.9786 246.1081 0041603 128.5062 231.9776 15.12353988104738
ROBUSTA-3A
1 60243U 24128J   26156.82320832  .00010757  00000-0  62966-3 0  9992
2 60243  61.9861 248.4271 0042952 125.6799 234.8306 15.11530085104704
CatSat
1 60246U 24125J   26156.32155111  .00052887  00000-0  71670-3 0  9995
2 60246  97.2093   8.6794 0021797 221.8924 138.0665 15.57233202105542
HYPERVIEW-1G (RS66S)
1 61772U 24199AP  26156.43076365  .00112991  00000-0  82953-3 0  9995
2 61772  97.2889  35.5812 0002110 312.1945  47.9139 15.72781514132821
AO-123
1 61781U 24199AY  26156.82654049  .00009964  00000-0  29017-3 0  9996
2 61781  97.3010  25.5999 0013535 357.3753   2.7417 15.35508561132189
JINJUSat 1B
1 63210U 25052A   26156.79073543  .00018607  00000-0  58275-3 0  9996
2 63210  97.4023  53.5348 0005245 116.5974 243.5806 15.33134001 68357
NUSHSAT 1
1 63211U 25052B   26156.46141225  .00022248  00000-0  64609-3 0  9998
2 63211  97.3988  53.7296 0005053 116.9969 243.1791 15.35491236 68342
TEVEL2-4
1 63213U 25052D   26155.66099578  .00021744  00000-0  65898-3 0  9995
2 63213  97.3926  52.0362 0004288 127.7510 232.4122 15.34152369 68195
TEVEL2-5
1 63214U 25052E   26156.46288933  .00019450  00000-0  59244-3 0  9999
2 63214  97.3910  52.7894 0004115 126.1659 233.9965 15.34015334 68317
TEVEL2-6
1 63215U 25052F   26155.69214829  .00020192  00000-0  61616-3 0  9998
2 63215  97.3914  52.0022 0004351 129.5253 230.6375 15.33948162 68195
TEVEL2-1
1 63217U 25052H   26156.43470877  .00016797  00000-0  52119-3 0  9994
2 63217  97.3883  52.3839 0004006 136.2880 223.8680 15.33457579 68290
TEVEL2-3
1 63218U 25052J   26155.64673364  .00020177  00000-0  62480-3 0  9992
2 63218  97.3888  51.6166 0003979 138.3190 221.8356 15.33483588 68170
TEVEL2-2
1 63219U 25052K   26156.50033897  .00018252  00000-0  56579-3 0  9993
2 63219  97.3888  52.4514 0003990 137.6177 222.5374 15.33469790 68309
TEVEL2-9
1 63237U 25052AD  26156.26677513  .00015357  00000-0  50636-3 0  9996
2 63237  97.3943  51.6191 0006650 165.5205 194.6228 15.31514886 68202
TEVEL2-7
1 63238U 25052AE  26156.43613089  .00014789  00000-0  49200-3 0  9997
2 63238  97.3949  51.7085 0006681 165.6962 194.4470 15.31236048 68227
TEVEL2-8
1 63239U 25052AF  26155.66005754  .00017961  00000-0  59749-3 0  9990
2 63239  97.3951  50.9120 0006564 168.5625 191.5767 15.31195553 68109
SPIRONE
1 66657U 25274H   26156.59744936  .00002363  00000-0  22955-3 0  9997
2 66657  97.7479  86.0545 0013412  57.1872 303.0638 14.93494222 28490
K-HERO
1 66660U 25274L   26156.53831419  .00002494  00000-0  23938-3 0  9995
2 66660  97.7484  86.1490 0015362  60.9618 299.3139 14.93913941 28493
SNUGLITE-III DURI
1 66661U 25274M   26156.59338964  .00001785  00000-0  17262-3 0  9994
2 66661  97.7481  86.2236 0015924  61.3071 298.9747 14.93959318 28502
SAKHACUBE-CHOLBON
1 67290U 25313AU  26156.47901390  .00010730  00000-0  43629-3 0  9999
2 67290  97.3924 231.6612 0009999  45.1828 315.0220 15.24671295 24196
RS95S (QMR-KWT-2)
1 67291U 25313AV  26156.01867298  .00016919  00000-0  65981-3 0  9998
2 67291  97.3928 231.3587 0009384  45.9006 314.3003 15.25966657 24138
Ten-Koh2
1 68261U 25241B   26153.84997429  .00006883  00000-0  29609-3 0  9990
2 68261  51.6660  27.8529 0006535 101.1658 259.0055 15.23719437 12723
JACK-002
1 68417U 26067B   26156.37235834  .00007672  00000-0  36722-3 0  9997
2 68417  97.4565 115.1108 0001585  25.7138 334.4175 15.19240597 10153
DISCO 2
1 68431U 26067R   26156.85206432  .00010406  00000-0  50162-3 0  9991
2 68431  97.4599 115.5737 0003760  63.0291 297.1327 15.18897251 10226
HADES-SA (SpinnyONE)
1 68446U 26067AG  26153.33220636  .00018852  00000-0  91402-3 0  9994
2 68446  97.4412 111.8588 0009424 119.3546 240.8630 15.18523368  9674
PARUS-6U1
1 68456U 26067AS  26156.38486404  .00005797  00000-0  29328-3 0  9992
2 68456  97.4551 114.9317 0007624 102.0819 258.1269 15.17386339 10143
SAL-E
1 68458U 26067AU  26156.38199461  .00008240  00000-0  41302-3 0  9990
2 68458  97.4478 114.8728 0007888 109.2733 250.9355 15.17582303 10149
FSI-SAT 2
1 68792U 26088A   26156.66432003  .00004654  00000-0  31631-3 0  9996
2 68792  97.5064 306.2151 0015602 142.2153 218.0173 15.06738480  6555
OrigamiSat 2
1 68795U 26088D   26156.35572027  .00004553  00000-0  29568-3 0  9990
2 68795  97.5095 306.0142 0016162 121.1144 239.1672 15.08430035  6519
ARICA 2
1 68796U 26088E   26156.35325763  .00004954  00000-0  32214-3 0  9991
2 68796  97.5059 306.0103 0017063 117.4844 242.8121 15.08327094  6513
WASEDA-SAT-ZERO-II
1 68797U 26088F   26156.68216984  .00007184  00000-0  46295-3 0  9994
2 68797  97.5061 306.3379 0016968 116.1684 244.1292 15.08506673  6567
MANGARO-II-Piscus
1 68798U 26088G   26156.40857907  .00004470  00000-0  28773-3 0  9997
2 68798  97.5064 306.0944 0020573 119.7835 240.5443 15.08695104  6522
IO-86
1 40931U          25360.30710720  .00000000  00000-0  12800-3 0    00
2 40931   6.0006 332.5373 0012733 338.8432   8.1437 14.79075515    01
LILIUM-4                
1 71922C 26067AC  26089.50133053 -.00014632  00000+0 -74472-3 0    04
2 71922  97.4497  49.1617 0004341   5.9603 355.7042 15.16896692    16
